Tiempo atmosférico en la estación meteorológica de Maspalomas, C. Insular Turismo, Las Palmas (45 m.)



Fecha
DESCASC
Temp. máxima en grados centígrados (hora)
DESCASC
Temp. mínima en grados centígrados (hora)
DESCASC
Temp. media en grados centígrados
DESCASC
Racha de viento máxima en m/sg (hora)
DESCASC
Velocidad máxima media en intervalos de 10 minutos(hora)
DESCASC
Precipitaciones diarias en mm
DESCASC
Precipitaciones de 00:00 a 06:00 en mm
DESCASC
Precipitaciones de 06:00 a 12:00 en mm
DESCASC
Precipitaciones de 12:00 a 18:00 en mm
DESCASC
Precipitaciones de 18:00 a 24:00 en mm
DESCASC
08-12-2019 22.1 (13:20) 18.1 (05:20) 20.1 14.72 (14:30) 7.22 (14:30) 0 0 0 0 0
07-12-2019 22.6 (15:50) 16 (06:50) 19.3 13.06 (17:20) 5.83 (15:40) 0 0 0 0 0
06-12-2019 22.4 (14:30) 16.2 (01:40) 19.3 6.94 (15:40) 3.89 (15:10) 0.4 0.4 0 0 0
05-12-2019 22.7 (12:30) 16.7 (00:00) 19.7 9.72 (13:00) 4.72 (12:40) 0.6 0 0 0 0.6
04-12-2019 22.4 (12:00) 16.4 (00:00) 19.4 6.94 (15:00) 4.17 (15:00) 0 0 0 0 0
03-12-2019 23.4 (13:20) 17.5 (00:00) 20.4 8.33 (15:30) 5 (15:30) 0 0 0 0 0
02-12-2019 23.1 (13:20) 17.2 (00:00) 20.2 8.61 (15:40) 5 (16:00) 0 0 0 0 0
01-12-2019 23.3 (11:20) 17.1 (00:00) 20.2 10.83 (13:50) 5.56 (13:50) 0 0 0 0 0
30-11-2019 27 (02:00) 19.1 (00:00) 23.1 8.61 (11:40) 4.44 (15:10) 0 0 0 0 0
29-11-2019 27.1 (12:00) 18.8 (00:00) 22.9 11.39 (10:40) 5 (06:40) 0 0 0 0 0
28-11-2019 25 (14:30) 16.5 (00:00) 20.8 8.33 (16:00) 3.89 (12:00) 0 0 0 0 0
27-11-2019 23.6 (15:20) 17.4 (00:00) 20.5 6.39 (15:50) 4.17 (16:10) 0 0 0 0 0
26-11-2019 23.3 (15:10) 16.9 (00:00) 20.1 8.33 (12:20) 3.61 (12:10) 0 0 0 0 0
25-11-2019 22.7 (14:10) 17.2 (00:00) 20 8.89 (10:20) 3.89 (10:20) 0 0 0 0 0
24-11-2019 24 (13:10) 17.9 (00:00) 20.9 7.22 (13:20) 4.44 (13:20) 0 0 0 0 0
23-11-2019 23.9 (13:30) 18.7 (00:00) 21.3 6.11 (17:20) 3.61 (17:30) 0 0 0 0 0
22-11-2019 25.2 (15:10) 18.2 (00:00) 21.7 5.28 (15:00) 3.33 (10:10) 0 0 0 0 0
21-11-2019 22.9 (13:50) 18.4 (00:00) 20.6 10 (16:20) 6.11 (13:40) 0.2 0.2 0 0 0
20-11-2019 22.5 (11:50) 17.1 (00:00) 19.8 11.67 (12:50) 6.11 (14:20) 0 0 0 0 0
19-11-2019 23 (11:40) 16.8 (00:00) 19.9 8.06 (16:10) 5 (16:30) 0 0 0 0 0
18-11-2019 23.1 (13:00) 15.4 (00:00) 19.3 11.39 (13:40) 5 (15:00) 0 0 0 0 0
17-11-2019 21.9 (13:20) 17.7 (00:00) 19.8 16.67 (12:20) 7.22 (14:30) 0 0 0 0 0
16-11-2019 23.3 (15:30) 16.5 (00:00) 19.9 10.83 (23:00) 5 (14:30) 0 0 0 0 0
15-11-2019 22.3 (11:10) 18.6 (00:00) 20.4 13.89 (16:50) 7.22 (16:50) 0 0 0 0 0
14-11-2019 24 (12:40) 18.2 (00:00) 21.1 14.17 (14:40) 6.67 (14:30) 0 0 0 0 0
13-11-2019 25.5 (14:10) 18.3 (00:00) 21.9 8.61 (15:00) 5 (14:30) 0 0 0 0 0
12-11-2019 25.1 (15:00) 18.7 (00:00) 21.9 7.5 (13:10) 5 (13:10) 0 0 0 0 0

Gráficas

Temp. máximas Temp. mínimas Temp. medias Precipitaciones Rachas de viento máximas Velocidades máximas media en intervalos de 10 minutos

Datos horarios

Fecha y hora oficial Temperatura (ºC) Velocidad del viento (km/h) Dirección del viento Racha (km/h) Dirección de racha Precipitación (mm) Presión (hPa) Tendencia (hPa) Humedad (%)
2019-12-11 23:00:00 17.8 3 Nordeste 14 Este 0 -- -- 59
2019-12-11 22:00:00 18.6 6 Este 20 Este 0 -- -- 57
2019-12-11 21:00:00 18.6 6 Nordeste 21 Nordeste 0 -- -- 62
2019-12-11 20:00:00 18.9 6 Este 18 Este 0 -- -- 63
2019-12-11 19:00:00 19.2 8 Este 28 Nordeste 0 -- -- 67
2019-12-11 18:00:00 20.1 9 Este 32 Este 0 -- -- 65
2019-12-11 17:00:00 21.2 13 Este 30 Este 0 -- -- 62
2019-12-11 16:00:00 21.8 13 Este 44 Nordeste 0 -- -- 61
2019-12-11 15:00:00 22 18 Este 43 Este 0 -- -- 62
2019-12-11 14:00:00 22 20 Este 45 Nordeste 0 -- -- 62
2019-12-11 13:00:00 22.7 19 Este 39 Este 0 -- -- 57
2019-12-11 12:00:00 22.3 18 Este 40 Este 0 -- -- 58
2019-12-11 11:00:00 21.9 13 Este 41 Este 0 -- -- 59
2019-12-11 10:00:00 20.7 12 Este 26 Este 0 -- -- 63
2019-12-11 09:00:00 17.9 5 Norte 11 Noroeste 0 -- -- 66
2019-12-11 08:00:00 16 5 Norte 12 Nordeste 0 -- -- 69
2019-12-11 07:00:00 17.6 7 Norte 16 Nordeste 0 -- -- 67
2019-12-11 06:00:00 16.1 6 Norte 13 Nordeste 0 -- -- 69
2019-12-11 05:00:00 16.4 3 Norte 12 Noroeste 0 -- -- 68
2019-12-11 04:00:00 16.5 6 Norte 12 Noroeste 0 -- -- 69
2019-12-11 03:00:00 16.7 4 Norte 10 Norte 0 -- -- 69
2019-12-11 02:00:00 17 3 Noroeste 12 Noroeste 0 -- -- 68
2019-12-11 01:00:00 17.6 8 Noroeste 12 Noroeste 0 -- -- 67
2019-12-11 00:00:00 17.5 7 Norte 11 Nordeste 0 -- -- 68
2019-12-10 23:00:00 17.8 3 Este 14 Norte 0 -- -- 67
2019-12-10 22:00:00 18.1 6 Noroeste 12 Sudoeste 0 -- -- 70
2019-12-10 21:00:00 18.5 4 Oeste 12 Oeste 0 -- -- 72
2019-12-10 20:00:00 18.7 4 Oeste 8 Sudoeste 0 -- -- 70
2019-12-10 19:00:00 19.2 5 Oeste 14 Sudoeste 0 -- -- 70
2019-12-10 18:00:00 20.1 6 Sudoeste 15 Oeste 0 -- -- 65
2019-12-10 17:00:00 21.5 12 Sudoeste 18 Oeste 0 -- -- 58
2019-12-10 16:00:00 22.3 12 Sudoeste 25 Oeste 0 -- -- 53
2019-12-10 15:00:00 22.4 12 Oeste 36 Este 0 -- -- 53
2019-12-10 14:00:00 22.2 12 Este 33 Este 0 -- -- 58
2019-12-10 13:00:00 21.5 16 Este 33 Este 0 -- -- 66
2019-12-10 12:00:00 22 14 Este 30 Este 0 -- -- 59
2019-12-10 11:00:00 21.5 10 Este 25 Este 0 -- -- 59
2019-12-10 10:00:00 19.4 4 Oeste 6 Noroeste 0 -- -- 62
2019-12-10 09:00:00 16.9 2 Norte 8 Norte 0 -- -- 52
2019-12-10 08:00:00 14.8 2 Noroeste 11 Norte 0 -- -- 63
2019-12-10 07:00:00 15.2 7 Norte 11 Norte 0 -- -- 63
2019-12-10 06:00:00 15.3 3 Norte 10 Norte 0 -- -- 68
2019-12-10 05:00:00 15.5 6 Norte 10 Norte 0 -- -- 67
2019-12-10 04:00:00 15.8 6 Norte 10 Norte 0 -- -- 66
2019-12-10 03:00:00 16 4 Norte 8 Norte 0 -- -- 65
2019-12-10 02:00:00 16.5 4 Nordeste 8 Nordeste 0 -- -- 64
2019-12-10 01:00:00 17.4 4 Este 16 Este 0 -- -- 65
2019-12-10 00:00:00 18.1 8 Este 22 Nordeste 0 -- -- 65
2019-12-09 23:00:00 18.2 9 Este 26 Nordeste 0 -- -- 69
2019-12-09 22:00:00 18.5 11 Este 24 Este 0 -- -- 67
2019-12-09 21:00:00 18.8 9 Este 24 Nordeste 0 -- -- 60
2019-12-09 20:00:00 19.2 7 Este 19 Este 0 -- -- 59
2019-12-09 19:00:00 19.4 9 Este 27 Este 0 -- -- 66
2019-12-09 18:00:00 20.2 12 Este 32 Este 0 -- -- 64
2019-12-09 17:00:00 21.6 13 Este 30 Este 0 -- -- 60
2019-12-09 16:00:00 22.9 12 Este 30 Nordeste 0 -- -- 53
2019-12-09 15:00:00 22.9 14 Este 33 Este 0 -- -- 49
2019-12-09 14:00:00 22.7 15 Este 35 Sudeste 0 -- -- 56
2019-12-09 13:00:00 23 17 Nordeste 36 Este 0 -- -- 46
2019-12-09 12:00:00 22.5 15 Nordeste 34 Este 0 -- -- 49
2019-12-09 11:00:00 21.7 16 Nordeste 33 Nordeste 0 -- -- 52
2019-12-09 10:00:00 21.1 12 Este 27 Nordeste 0 -- -- 58
2019-12-09 09:00:00 19.5 8 Nordeste 31 Nordeste 0 -- -- 60
2019-12-09 08:00:00 18.3 13 Nordeste 36 Nordeste 0 -- -- 66
2019-12-09 07:00:00 18.3 12 Nordeste 25 Este 0 -- -- 64
2019-12-09 06:00:00 18.4 11 Nordeste 27 Nordeste 0 -- -- 62
2019-12-09 05:00:00 18.4 12 Nordeste 23 Nordeste 0 -- -- 59
2019-12-09 04:00:00 18.7 14 Nordeste 32 Nordeste 0 -- -- 58
2019-12-09 03:00:00 18.6 10 Nordeste 27 Nordeste 0 -- -- 60
2019-12-09 02:00:00 18.8 13 Nordeste 36 Norte 0 -- -- 58
2019-12-09 01:00:00 18.9 12 Nordeste 28 Nordeste 0 -- -- 57
2019-12-09 00:00:00 19.2 14 Nordeste 37 Nordeste 0 -- -- 55
2019-12-08 23:00:00 19.2 17 Nordeste 43 Nordeste 0 -- -- 55
2019-12-08 22:00:00 18.8 14 Este 32 Nordeste 0 -- -- 64
2019-12-08 21:00:00 18.9 13 Este 28 Este 0 -- -- 62
2019-12-08 20:00:00 19.6 15 Nordeste 35 Nordeste 0 -- -- 52
2019-12-08 19:00:00 20.2 16 Nordeste 31 Norte 0 -- -- 44
2019-12-08 18:00:00 20.4 15 Nordeste 36 Este 0 -- -- 45
2019-12-08 17:00:00 20.4 15 Nordeste 40 Nordeste 0 -- -- 56
2019-12-08 16:00:00 20.9 20 Nordeste 44 Este 0 -- -- 60
2019-12-08 15:00:00 21.9 19 Nordeste 53 Nordeste 0 -- -- 48
2019-12-08 14:00:00 21.5 20 Este 45 Este 0 -- -- 54
2019-12-08 13:00:00 21.6 22 Nordeste 45 Este 0 -- -- 49
2019-12-08 12:00:00 20.9 22 Nordeste 41 Este 0 -- -- 54
2019-12-08 11:00:00 20.6 15 Nordeste 35 Nordeste 0 -- -- 54
2019-12-08 10:00:00 19.8 18 Nordeste 36 Nordeste 0 -- -- 61
2019-12-08 09:00:00 19.3 13 Nordeste 32 Este 0 -- -- 55
2019-12-08 08:00:00 18.3 12 Nordeste 30 Este 0 -- -- 61
2019-12-08 07:00:00 18.1 13 Nordeste 23 Nordeste 0 -- -- 65
2019-12-08 06:00:00 18.2 12 Nordeste 24 Este 0 -- -- 64
2019-12-08 05:00:00 18.2 10 Este 24 Este 0 -- -- 66
2019-12-08 04:00:00 18.5 9 Nordeste 39 Nordeste 0 -- -- 66
2019-12-08 03:00:00 18.7 14 Nordeste 35 Este 0 -- -- 68
2019-12-08 02:00:00 18.8 11 Nordeste 27 Este 0 -- -- 72
2019-12-08 01:00:00 19.1 15 Nordeste 31 Este 0 -- -- 67
2019-12-08 00:00:00 19.3 14 Nordeste 33 Nordeste 0 -- -- 63
2019-12-07 23:00:00 19.3 17 Nordeste 35 Nordeste 0 -- -- 64
2019-12-07 22:00:00 19.3 14 Nordeste 35 Nordeste 0 -- -- 66
2019-12-07 21:00:00 19.3 12 Este 30 Este 0 -- -- 68
2019-12-07 20:00:00 20 10 Nordeste 22 Nordeste 0 -- -- 58
2019-12-07 19:00:00 19.9 15 Nordeste 30 Este 0 -- -- 61
2019-12-07 18:00:00 20.2 15 Nordeste 47 Nordeste 0 -- -- 62
2019-12-07 17:00:00 21.2 18 Nordeste 36 Nordeste 0 -- -- 60
2019-12-07 16:00:00 22.5 18 Nordeste 41 Nordeste 0 -- -- 50
2019-12-07 15:00:00 22.2 6 Oeste 17 Sudoeste 0 -- -- 58
2019-12-07 14:00:00 21.3 8 Oeste 20 Sudoeste 0 -- -- 58
2019-12-07 13:00:00 21.7 12 Oeste 25 Oeste 0 -- -- 58
2019-12-07 12:00:00 21.7 7 Noroeste 21 Oeste 0 -- -- 56
2019-12-07 11:00:00 21 9 Oeste 17 Oeste 0 -- -- 58
2019-12-07 10:00:00 21 6 Sudoeste 13 Noroeste 0 -- -- 56
2019-12-07 09:00:00 18.3 5 Noroeste 11 Norte 0 -- -- 65
2019-12-07 08:00:00 16.6 8 Norte 15 Norte 0 -- -- 71
2019-12-07 07:00:00 16.1 4 Norte 8 Noroeste 0 -- -- 74
2019-12-07 06:00:00 16.6 4 Noroeste 10 Norte 0 -- -- 71
2019-12-07 05:00:00 16.7 5 Nordeste 9 Norte 0 -- -- 72
2019-12-07 04:00:00 17.1 5 Norte 9 Norte 0 -- -- 71
2019-12-07 03:00:00 17.4 4 Norte 8 Norte 0 -- -- 69
2019-12-07 02:00:00 17.9 6 Norte 12 Noroeste 0 -- -- 65
2019-12-07 01:00:00 18.2 5 Noroeste 13 Nordeste 0 -- -- 61
2019-12-07 00:00:00 18.3 4 Nordeste 17 Nordeste 0 -- -- 62
2019-12-06 23:00:00 18.4 5 Nordeste 16 Este 0 -- -- 63
2019-12-06 22:00:00 18.6 6 Sudeste 14 Nordeste 0 -- -- 64
2019-12-06 21:00:00 18.8 6 Nordeste 14 Nordeste 0 -- -- 64
2019-12-06 20:00:00 19.2 7 Nordeste 21 Nordeste 0 -- -- 57
2019-12-06 19:00:00 19.5 0 Calma 17 Sur 0 -- -- 64
2019-12-06 18:00:00 20.2 10 Sur 21 Sur 0 -- -- 64
2019-12-06 17:00:00 20.6 10 Sur 22 Sur 0 -- -- 62
2019-12-06 16:00:00 21.2 10 Sudoeste 25 Sur 0 -- -- 60
2019-12-06 15:00:00 22.3 12 Sur 23 Sur 0 -- -- 56
2019-12-06 14:00:00 22 10 Sur 23 Sudoeste 0 -- -- 54
2019-12-06 13:00:00 21.7 12 Sudoeste 24 Sudoeste 0 -- -- 53
2019-12-06 12:00:00 20.4 9 Sudoeste 21 Sudoeste 0 -- -- 58
2019-12-06 11:00:00 20.8 11 Sudoeste 17 Sudoeste 0 -- -- 60
2019-12-06 10:00:00 19 6 Noroeste 12 Oeste 0 -- -- 64
2019-12-06 09:00:00 18.4 3 Norte 8 Norte 0 -- -- 65
2019-12-06 08:00:00 17.1 5 Norte 13 Norte 0 -- -- 68
2019-12-06 07:00:00 17.3 6 Noroeste 13 Noroeste 0 -- -- 67
2019-12-06 06:00:00 16.8 6 Norte 13 Noroeste 0 -- -- 70
2019-12-06 05:00:00 16.7 4 Norte 10 Noroeste 0 -- -- 70
2019-12-06 04:00:00 16.6 6 Noroeste 14 Noroeste 0 -- -- 70
2019-12-06 03:00:00 16.2 4 Norte 11 Norte 0 -- -- 75
2019-12-06 02:00:00 16.2 6 Norte 10 Norte 0.2 -- -- 75
2019-12-06 01:00:00 16.8 4 Norte 9 Norte 0.2 -- -- 74
2019-12-06 00:00:00 16.7 4 Nordeste 12 Norte 0 -- -- 72
2019-12-05 23:00:00 16.9 5 Noroeste 10 Oeste 0.4 -- -- 73
2019-12-05 22:00:00 18.1 6 Nordeste 12 Este 0.2 -- -- 62
2019-12-05 21:00:00 18.7 3 Sur 10 Sudeste 0 -- -- 59
2019-12-05 20:00:00 19.2 3 Sur 21 Oeste 0 -- -- 56
2019-12-05 19:00:00 19.3 3 Noroeste 10 Nordeste 0 -- -- 55
2019-12-05 18:00:00 19.8 7 Sudeste 18 Sudeste 0 -- -- 57
2019-12-05 17:00:00 20.4 8 Sur 18 Sur 0 -- -- 55
2019-12-05 16:00:00 21.4 9 Sudoeste 17 Sudoeste 0 -- -- 50
2019-12-05 15:00:00 20.6 6 Sudeste 27 Sudeste 0 -- -- 52
2019-12-05 14:00:00 21.3 14 Sudeste 27 Oeste 0 -- -- 50
2019-12-05 13:00:00 21.4 15 Noroeste 35 Noroeste 0 -- -- 49
2019-12-05 12:00:00 22.2 10 Oeste 21 Oeste 0 -- -- 44
2019-12-05 11:00:00 21.1 9 Sudeste 24 Sudeste 0 -- -- 53
2019-12-05 10:00:00 20.6 8 Noroeste 17 Oeste 0 -- -- 44
2019-12-05 09:00:00 19.1 7 Sudoeste 14 Sudoeste 0 -- -- 61
2019-12-05 08:00:00 17.1 4 Sudoeste 10 Este 0 -- -- 80
2019-12-05 07:00:00 17 5 Norte 10 Este 0 -- -- 79
2019-12-05 06:00:00 16.9 4 Nordeste 8 Sudoeste 0 -- -- 83
2019-12-05 05:00:00 17.2 3 Nordeste 21 Este 0 -- -- 84
2019-12-05 04:00:00 17.7 9 Este 22 Nordeste 0 -- -- 80
2019-12-05 03:00:00 18.8 3 Noroeste 15 Noroeste 0 -- -- 69
2019-12-05 02:00:00 18.9 9 Noroeste 21 Noroeste 0 -- -- 71
2019-12-05 01:00:00 18.8 4 Noroeste 6 Noroeste 0 -- -- 69
2019-12-05 00:00:00 18.8 2 Oeste 7 Noroeste 0 -- -- 68
2019-12-04 23:00:00 18.8 3 Sudoeste 5 Sur 0 -- -- 70
2019-12-04 22:00:00 19.5 3 Sur 6 Sur 0 -- -- 68
2019-12-04 21:00:00 20 3 Este 11 Nordeste 0 -- -- 64
2019-12-04 20:00:00 19.9 5 Nordeste 12 Este 0 -- -- 66
2019-12-04 19:00:00 20.1 6 Nordeste 15 Sudeste 0 -- -- 64
2019-12-04 18:00:00 20.6 7 Sur 17 Este 0 -- -- 64
2019-12-04 17:00:00 20.5 7 Sudeste 20 Sudeste 0 -- -- 64
2019-12-04 16:00:00 20.6 13 Sudeste 22 Sudeste 0 -- -- 61
2019-12-04 15:00:00 21.1 15 Sudeste 25 Sudeste 0 -- -- 60
2019-12-04 14:00:00 22.2 9 Sur 24 Sudeste 0 -- -- 53
2019-12-04 13:00:00 21.5 11 Sur 22 Sur 0 -- -- 55
2019-12-04 12:00:00 22.4 10 Sur 19 Sur 0 -- -- 50
2019-12-04 11:00:00 20.8 10 Sudeste 16 Sudeste 0 -- -- 56
2019-12-04 10:00:00 20.4 7 Sudeste 11 Sudeste 0 -- -- 56
2019-12-04 09:00:00 18.1 4 Norte 9 Norte 0 -- -- 64
2019-12-04 08:00:00 17.5 0 Calma 11 Este 0 -- -- 68
2019-12-04 07:00:00 17.1 7 Norte 13 Norte 0 -- -- 59
2019-12-04 06:00:00 16.4 5 Noroeste 9 Noroeste 0 -- -- 62
2019-12-04 05:00:00 16.7 6 Norte 12 Norte 0 -- -- 61
2019-12-04 04:00:00 16.9 6 Norte 10 Norte 0 -- -- 61
2019-12-04 03:00:00 17.5 5 Norte 13 Norte 0 -- -- 59
2019-12-04 02:00:00 17.5 7 Norte 12 Norte 0 -- -- 59
2019-12-04 01:00:00 17.9 4 Noroeste 6 Oeste 0 -- -- 60
2019-12-04 00:00:00 18.5 2 Este 7 Noroeste 0 -- -- 57
2019-12-03 23:00:00 19.5 4 Norte 10 Sudoeste 0 -- -- 52
2019-12-03 22:00:00 19.7 5 Noroeste 14 Oeste 0 -- -- 59
2019-12-03 21:00:00 19.4 6 Noroeste 12 Sudoeste 0 -- -- 64
2019-12-03 20:00:00 19.5 8 Sudoeste 17 Sudoeste 0 -- -- 65
2019-12-03 19:00:00 19.9 6 Sudoeste 18 Sudoeste 0 -- -- 60
2019-12-03 18:00:00 20.6 9 Sur 25 Sudoeste 0 -- -- 59
2019-12-03 17:00:00 21.8 15 Sur 26 Sudoeste 0 -- -- 56
2019-12-03 16:00:00 22.9 11 Sur 30 Sudoeste 0 -- -- 50
2019-12-03 15:00:00 23.4 15 Sur 27 Sudoeste 0 -- -- 47
2019-12-03 14:00:00 22.7 18 Sur 28 Sur 0 -- -- 50
2019-12-03 13:00:00 23.2 13 Sur 23 Sur 0 -- -- 48
2019-12-03 12:00:00 21.6 12 Sudeste 22 Sudeste 0 -- -- 54
2019-12-03 11:00:00 21.4 9 Sudeste 13 Este 0 -- -- 54
2019-12-03 10:00:00 20 4 Sudeste 9 Sudeste 0 -- -- 63
2019-12-03 09:00:00 18.9 3 Norte 5 Norte 0 -- -- 67
2019-12-03 08:00:00 18 3 Nordeste 9 Norte 0 -- -- 70
2019-12-03 07:00:00 17.8 6 Nordeste 13 Noroeste 0 -- -- 70
2019-12-03 06:00:00 18.2 4 Norte 8 Norte 0 -- -- 68
2019-12-03 05:00:00 18.1 4 Este 9 Sudeste 0 -- -- 69
2019-12-03 04:00:00 18 3 Norte 13 Oeste 0 -- -- 70
2019-12-03 03:00:00 17.9 5 Noroeste 10 Noroeste 0 -- -- 69
2019-12-03 02:00:00 17.5 3 Norte 6 Noroeste 0 -- -- 72
2019-12-03 01:00:00 17.7 2 Norte 10 Sudoeste 0 -- -- 74
2019-12-03 00:00:00 18.2 2 Nordeste 12 Este 0 -- -- 73
2019-12-02 23:00:00 18.5 3 Sudoeste 10 Sudeste 0 -- -- 74
2019-12-02 22:00:00 19 4 Este 8 Este 0 -- -- 72
2019-12-02 21:00:00 19.3 7 Oeste 12 Sudoeste 0 -- -- 72
2019-12-02 20:00:00 19.9 4 Este 19 Este 0 -- -- 67
2019-12-02 19:00:00 20.3 6 Este 18 Este 0 -- -- 73
2019-12-02 18:00:00 21 9 Nordeste 17 Este 0 -- -- 65
2019-12-02 17:00:00 22.1 6 Sur 31 Sudoeste 0 -- -- 61
2019-12-02 16:00:00 22.3 18 Sudoeste 31 Sudoeste 0 -- -- 65
2019-12-02 15:00:00 22.4 14 Sudoeste 26 Sudoeste 0 -- -- 63
2019-12-02 14:00:00 22.8 14 Sudoeste 25 Sur 0 -- -- 62
2019-12-02 13:00:00 22.7 12 Sudoeste 21 Oeste 0 -- -- 60
2019-12-02 12:00:00 21.9 12 Sur 24 Sur 0 -- -- 64
2019-12-02 11:00:00 22.4 12 Sur 20 Sudoeste 0 -- -- 63
2019-12-02 10:00:00 21.8 7 Sur 15 Sur 0 -- -- 68
2019-12-02 09:00:00 18.9 0 Calma 12 Norte 0 -- -- 75
2019-12-02 08:00:00 17.4 6 Norte 11 Norte 0 -- -- 76
2019-12-02 07:00:00 17.3 4 Norte 11 Noroeste 0 -- -- 76
2019-12-02 06:00:00 17.5 4 Norte 13 Noroeste 0 -- -- 76
2019-12-02 05:00:00 18.2 8 Noroeste 12 Noroeste 0 -- -- 75
2019-12-02 04:00:00 17.9 5 Norte 11 Norte 0 -- -- 77
2019-12-02 03:00:00 18.2 6 Norte 13 Noroeste 0 -- -- 77
2019-12-02 02:00:00 18.7 3 Norte 6 Norte 0 -- -- 73
2019-12-02 01:00:00 18.6 2 Sur 5 Este 0 -- -- 70
2019-12-02 00:00:00 18.7 0 Calma 7 Este 0 -- -- 67
2019-12-01 23:00:00 19.4 5 Nordeste 10 Norte 0 -- -- 58
2019-12-01 22:00:00 19.5 3 Norte 14 Este 0 -- -- 64
2019-12-01 21:00:00 19.9 5 Nordeste 12 Este 0 -- -- 64
2019-12-01 20:00:00 20.2 6 Este 14 Este 0 -- -- 63
2019-12-01 19:00:00 20.4 5 Nordeste 21 Este 0 -- -- 66
2019-12-01 18:00:00 21.2 10 Este 23 Este 0 -- -- 65
2019-12-01 17:00:00 22.3 9 Oeste 27 Este 0 -- -- 67
2019-12-01 16:00:00 22.4 14 Este 36 Este 0 -- -- 65
2019-12-01 15:00:00 22.1 18 Este 39 Este 0 -- -- 68
2019-12-01 14:00:00 22.3 19 Este 39 Este 0 -- -- 66
2019-12-01 13:00:00 23.2 15 Este 37 Este 0 -- -- 61
2019-12-01 12:00:00 23 14 Este 29 Este 0 -- -- 61
2019-12-01 11:00:00 22.8 6 Oeste 14 Este 0 -- -- 64
2019-12-01 10:00:00 22.3 6 Este 12 Este 0 -- -- 62
2019-12-01 09:00:00 20.2 4 Sur 6 Sudoeste 0 -- -- 63
2019-12-01 08:00:00 17.2 0 Calma 5 Norte 0 -- -- 66
2019-12-01 07:00:00 17.4 0 Calma 7 Oeste 0 -- -- 73
2019-12-01 06:00:00 17.6 0 Calma 5 Nordeste 0 -- -- 77
2019-12-01 05:00:00 17.8 3 Noroeste 5 Oeste 0 -- -- 74
2019-12-01 04:00:00 17.9 0 Calma 5 Este 0 -- -- 72
2019-12-01 03:00:00 18.1 0 Calma 4 Este 0 -- -- 70
2019-12-01 02:00:00 18.4 0 Calma 5 Oeste 0 -- -- 67
2019-12-01 01:00:00 18.6 3 Sudoeste 4 Oeste 0 -- -- 64
2019-12-01 00:00:00 19.1 2 Oeste 4 Sudoeste 0 -- -- 67
2019-11-30 23:00:00 19.6 0 Calma 4 Sudeste 0 -- -- 74
2019-11-30 22:00:00 20.4 3 Este 4 Este 0 -- -- 75
2019-11-30 21:00:00 20.7 0 Calma 4 Este 0 -- -- 76
2019-11-30 20:00:00 21.3 0 Calma 5 Este 0 -- -- 77
2019-11-30 19:00:00 21.9 3 Nordeste 15 Este 0 -- -- 75
2019-11-30 18:00:00 23 7 Este 23 Este 0 -- -- 71
2019-11-30 17:00:00 24.4 10 Este 27 Este 0 -- -- 62
2019-11-30 16:00:00 24 13 Este 29 Este 0 -- -- 57
2019-11-30 15:00:00 23.9 12 Este 31 Este 0 -- -- 59
2019-11-30 14:00:00 24 15 Este 30 Este 0 -- -- 57
2019-11-30 13:00:00 24.2 11 Este 27 Este 0 -- -- 49
2019-11-30 12:00:00 24.4 14 Este 31 Sudeste 0 -- -- 49
2019-11-30 11:00:00 24.4 13 Este 30 Este 0 -- -- 55
2019-11-30 10:00:00 25.2 12 Este 26 Este 0 -- -- 37
2019-11-30 09:00:00 25.3 10 Este 24 Este 0 -- -- 33
2019-11-30 08:00:00 25.2 9 Este 23 Este 0 -- -- 26
2019-11-30 07:00:00 25.6 9 Este 23 Nordeste 0 -- -- 25
2019-11-30 06:00:00 25.7 11 Nordeste 26 Nordeste 0 -- -- 24
2019-11-30 05:00:00 25.9 10 Este 26 Este 0 -- -- 24
2019-11-30 04:00:00 25.2 12 Nordeste 27 Este 0 -- -- 25
2019-11-30 03:00:00 25.5 10 Este 30 Nordeste 0 -- -- 32
2019-11-30 02:00:00 27 12 Nordeste 26 Nordeste 0 -- -- 22
2019-11-30 01:00:00 24.9 7 Este 22 Este 0 -- -- 25
2019-11-30 00:00:00 24.2 8 Este 22 Este 0 -- -- 35
2019-11-29 23:00:00 23.2 9 Este 22 Nordeste 0 -- -- 40
2019-11-29 22:00:00 22.3 5 Este 14 Este 0 -- -- 45
2019-11-29 21:00:00 22.1 4 Este 8 Este 0 -- -- 55
2019-11-29 20:00:00 23.1 4 Este 9 Este 0 -- -- 52
2019-11-29 19:00:00 24 5 Nordeste 18 Este 0 -- -- 48
2019-11-29 18:00:00 24.1 6 Este 24 Este 0 -- -- 46
2019-11-29 17:00:00 24.2 8 Este 30 Este 0 -- -- 46
2019-11-29 16:00:00 25.5 9 Este 32 Este 0 -- -- 49
2019-11-29 15:00:00 26.3 12 Este 29 Este 0 -- -- 38
2019-11-29 14:00:00 26.5 12 Este 31 Este 0 -- -- 32
2019-11-29 13:00:00 25.7 12 Este 30 Nordeste 0 -- -- 44
2019-11-29 12:00:00 27.1 12 Este 35 Este 0 -- -- 33
2019-11-29 11:00:00 26.3 13 Este 41 Este 0 -- -- 39
2019-11-29 10:00:00 26.3 14 Este 37 Nordeste 0 -- -- 33
2019-11-29 09:00:00 25.7 11 Este 31 Nordeste 0 -- -- 33
2019-11-29 08:00:00 25 14 Nordeste 31 Este 0 -- -- 32
2019-11-29 07:00:00 24.7 15 Nordeste 36 Nordeste 0 -- -- 33
2019-11-29 06:00:00 23.5 12 Nordeste 30 Este 0 -- -- 38
2019-11-29 05:00:00 21.9 13 Este 31 Este 0 -- -- 50
2019-11-29 04:00:00 20.8 12 Este 28 Este 0 -- -- 58
2019-11-29 03:00:00 18.8 4 Sudoeste 13 Sur 0 -- -- 70
2019-11-29 02:00:00 19.3 3 Oeste 8 Noroeste 0 -- -- 85
2019-11-29 01:00:00 19.5 6 Oeste 19 Este 0 -- -- 81
2019-11-29 00:00:00 21 2 Norte 14 Este 0 -- -- 51
2019-11-28 23:00:00 21 7 Nordeste 17 Nordeste 0 -- -- 55
2019-11-28 22:00:00 19.7 3 Nordeste 5 Nordeste 0 -- -- 73
2019-11-28 21:00:00 20.2 5 Oeste 9 Oeste 0 -- -- 77
2019-11-28 20:00:00 20.6 3 Sudoeste 12 Oeste 0 -- -- 72
2019-11-28 19:00:00 21.4 2 Este 10 Oeste 0 -- -- 70
2019-11-28 18:00:00 22.4 4 Sur 12 Este 0 -- -- 64
2019-11-28 17:00:00 23.5 7 Este 27 Este 0 -- -- 55
2019-11-28 16:00:00 23.6 13 Este 30 Este 0 -- -- 58
2019-11-28 15:00:00 24.4 12 Este 27 Este 0 -- -- 46
2019-11-28 14:00:00 23.9 12 Este 27 Este 0 -- -- 55
2019-11-28 13:00:00 24.2 12 Este 27 Este 0 -- -- 54
2019-11-28 12:00:00 23.6 14 Este 25 Este 0 -- -- 60
2019-11-28 11:00:00 23 8 Sudoeste 14 Sudoeste 0 -- -- 67
2019-11-28 10:00:00 20.9 3 Sur 6 Sudeste 0 -- -- 73
2019-11-28 09:00:00 17.9 4 Norte 12 Norte 0 -- -- 76
2019-11-28 08:00:00 16.6 3 Norte 8 Norte 0 -- -- 79
2019-11-28 07:00:00 16.7 3 Noroeste 9 Nordeste 0 -- -- 81
2019-11-28 06:00:00 16.6 3 Nordeste 10 Este 0 -- -- 83
2019-11-28 05:00:00 16.9 0 Calma 7 Norte 0 -- -- 83
2019-11-28 04:00:00 17 0 Calma 6 Noroeste 0 -- -- 77
2019-11-28 03:00:00 17.4 2 Noroeste 5 Norte 0 -- -- 82
2019-11-28 02:00:00 17.8 5 Norte 7 Norte 0 -- -- 82
2019-11-28 01:00:00 18.1 0 Calma 6 Oeste 0 -- -- 84
2019-11-28 00:00:00 18.6 4 Noroeste 6 Sudeste 0 -- -- 85
2019-11-27 23:00:00 19 3 Este 8 Oeste 0 -- -- 84
2019-11-27 22:00:00 19.4 5 Noroeste 10 Oeste 0 -- -- 83
2019-11-27 21:00:00 19.4 4 Oeste 5 Oeste 0 -- -- 83
2019-11-27 20:00:00 19.9 3 Sur 5 Sudoeste 0 -- -- 80
2019-11-27 19:00:00 20.4 4 Sudoeste 11 Sudoeste 0 -- -- 79
2019-11-27 18:00:00 21 8 Sudoeste 17 Sudoeste 0 -- -- 77
2019-11-27 17:00:00 22.1 10 Sudoeste 22 Sudoeste 0 -- -- 72
2019-11-27 16:00:00 23.2 13 Sudoeste 23 Sudoeste 0 -- -- 68
2019-11-27 15:00:00 23.5 12 Sudoeste 22 Sudoeste 0 -- -- 66
2019-11-27 14:00:00 23.3 10 Sudoeste 20 Oeste 0 -- -- 67
2019-11-27 13:00:00 23.2 10 Oeste 22 Oeste 0 -- -- 67
2019-11-27 05:00:00 17.9 6 Noroeste 12 Norte 0 -- -- 84
2019-11-27 04:00:00 17.8 7 Norte 12 Norte 0 -- -- 84
2019-11-27 03:00:00 18.2 4 Norte 8 Norte 0 -- -- 83
2019-11-27 02:00:00 18.6 4 Noroeste 8 Noroeste 0 -- -- 83
2019-11-27 01:00:00 18.9 0 Calma 6 Nordeste 0 -- -- 83
2019-11-27 00:00:00 18.5 4 Nordeste 7 Oeste 0 -- -- 83
2019-11-26 23:00:00 18.9 2 Noroeste 6 Oeste 0 -- -- 83
2019-11-26 22:00:00 19.3 0 Calma 5 Este 0 -- -- 82
2019-11-26 21:00:00 19.4 0 Calma 5 Sudoeste 0 -- -- 82
2019-11-26 20:00:00 19.7 2 Sudoeste 10 Oeste 0 -- -- 80
2019-11-26 19:00:00 20.1 5 Oeste 16 Oeste 0 -- -- 78
2019-11-26 18:00:00 20.8 8 Oeste 13 Oeste 0 -- -- 75
2019-11-26 17:00:00 21.8 8 Oeste 17 Sudoeste 0 -- -- 71
2019-11-26 16:00:00 22.6 10 Sur 18 Sur 0 -- -- 68
2019-11-26 15:00:00 23.2 9 Sudoeste 19 Sur 0 -- -- 66
2019-11-26 14:00:00 22.8 10 Sudoeste 19 Sur 0 -- -- 67
2019-11-26 13:00:00 22 11 Sudoeste 30 Sudoeste 0 -- -- 69
2019-11-26 12:00:00 22.3 12 Sudoeste 21 Sudoeste 0 -- -- 68
2019-11-26 11:00:00 21.9 10 Sudoeste 18 Sudoeste 0 -- -- 69
2019-11-26 10:00:00 21 6 Sudeste 10 Este 0 -- -- 71
2019-11-26 09:00:00 19.3 2 Nordeste 11 Norte 0 -- -- 76
2019-11-26 08:00:00 17.2 6 Norte 9 Norte 0 -- -- 80
2019-11-26 07:00:00 17 5 Norte 10 Norte 0 -- -- 79
2019-11-26 06:00:00 16.9 5 Norte 10 Norte 0 -- -- 79
2019-11-26 05:00:00 17.1 7 Norte 12 Norte 0 -- -- 79
2019-11-26 04:00:00 17.2 6 Norte 10 Norte 0 -- -- 79
2019-11-26 03:00:00 17.4 5 Noroeste 8 Noroeste 0 -- -- 78
2019-11-26 02:00:00 17.7 3 Norte 8 Norte 0 -- -- 77
2019-11-26 01:00:00 18.1 4 Norte 8 Norte 0 -- -- 75
2019-11-26 00:00:00 18.5 5 Noroeste 8 Noroeste 0 -- -- 74
2019-11-25 23:00:00 18.9 3 Nordeste 9 Sudeste 0 -- -- 73
2019-11-25 22:00:00 19.5 2 Sudeste 9 Nordeste 0 -- -- 71
2019-11-25 21:00:00 20.2 3 Norte 10 Noroeste 0 -- -- 72
2019-11-25 20:00:00 20.2 3 Noroeste 16 Oeste 0 -- -- 71
2019-11-25 19:00:00 20.2 9 Oeste 20 Oeste 0 -- -- 72
2019-11-25 18:00:00 20.5 9 Sudoeste 19 Sudoeste 0 -- -- 72
2019-11-25 17:00:00 21.1 8 Oeste 21 Sudoeste 0 -- -- 66
2019-11-25 16:00:00 21.4 12 Sudoeste 28 Este 0 -- -- 66
2019-11-25 15:00:00 21.3 7 Oeste 24 Este 0 -- -- 67
2019-11-25 14:00:00 22.6 10 Sudoeste 23 Oeste 0 -- -- 61
2019-11-25 13:00:00 22 13 Sudoeste 23 Oeste 0 -- -- 64
2019-11-25 12:00:00 21.6 10 Sudoeste 22 Oeste 0 -- -- 65
2019-11-25 11:00:00 20.9 12 Oeste 32 Este 0 -- -- 66
2019-11-25 10:00:00 21.6 13 Sur 24 Este 0 -- -- 65
2019-11-25 09:00:00 18.9 4 Norte 12 Norte 0 -- -- 69
2019-11-25 08:00:00 17.2 4 Nordeste 13 Noroeste 0 -- -- 74
2019-11-25 07:00:00 17.4 6 Norte 16 Norte 0 -- -- 73
2019-11-25 06:00:00 17.8 6 Norte 10 Norte 0 -- -- 72
2019-11-25 05:00:00 18 3 Norte 10 Noroeste 0 -- -- 73
2019-11-25 04:00:00 18.7 5 Norte 10 Norte 0 -- -- 71
2019-11-25 03:00:00 19.5 4 Nordeste 12 Este 0 -- -- 66
2019-11-25 02:00:00 19.5 4 Nordeste 11 Este 0 -- -- 65
2019-11-25 01:00:00 19.4 2 Este 10 Nordeste 0 -- -- 64
2019-11-25 00:00:00 19.8 5 Nordeste 23 Nordeste 0 -- -- 61
2019-11-24 23:00:00 20.3 8 Nordeste 16 Este 0 -- -- 62
2019-11-24 22:00:00 20.2 5 Nordeste 17 Nordeste 0 -- -- 63
2019-11-24 21:00:00 20.3 6 Este 13 Nordeste 0 -- -- 69
2019-11-24 20:00:00 20.6 6 Oeste 11 Oeste 0 -- -- 76
2019-11-24 19:00:00 20.8 6 Sudoeste 13 Sudoeste 0 -- -- 77
2019-11-24 18:00:00 21.2 8 Sudoeste 13 Sudoeste 0 -- -- 74
2019-11-24 17:00:00 21.5 8 Oeste 15 Sudoeste 0 -- -- 74
2019-11-24 16:00:00 22 6 Sur 19 Oeste 0 -- -- 74
2019-11-24 15:00:00 22.1 10 Sudoeste 22 Sudoeste 0 -- -- 73
2019-11-24 14:00:00 23.4 14 Sudoeste 26 Sudoeste 0 -- -- 67
2019-11-24 13:00:00 23.9 12 Sudoeste 22 Sudoeste 0 -- -- 61
2019-11-24 12:00:00 23.6 11 Oeste 21 Sudoeste 0 -- -- 61
2019-11-24 11:00:00 23.4 8 Sudoeste 13 Sudoeste 0 -- -- 64
2019-11-24 10:00:00 21.9 4 Oeste 10 Norte 0 -- -- 69
2019-11-24 09:00:00 19.4 5 Norte 10 Norte 0 -- -- 73
2019-11-24 08:00:00 18 6 Norte 13 Norte 0 -- -- 76
2019-11-24 07:00:00 18.1 5 Norte 10 Noroeste 0 -- -- 78
2019-11-24 06:00:00 18.4 4 Noroeste 10 Noroeste 0 -- -- 78
2019-11-24 05:00:00 18.5 5 Norte 10 Noroeste 0 -- -- 77
2019-11-24 04:00:00 18.7 4 Norte 9 Norte 0 -- -- 76
2019-11-24 03:00:00 19 4 Noroeste 10 Noroeste 0 -- -- 77
2019-11-24 02:00:00 19.3 6 Noroeste 9 Noroeste 0 -- -- 77
2019-11-24 01:00:00 19.7 5 Noroeste 12 Noroeste 0 -- -- 77
2019-11-24 00:00:00 20 7 Noroeste 12 Noroeste 0 -- -- 80
2019-11-23 23:00:00 20.6 5 Noroeste 8 Sudoeste 0 -- -- 80
2019-11-23 22:00:00 20.5 3 Sudeste 7 Sur 0 -- -- 84
2019-11-23 21:00:00 20.7 2 Sudoeste 9 Oeste 0 -- -- 80
2019-11-23 20:00:00 20.9 5 Oeste 12 Oeste 0 -- -- 82
2019-11-23 19:00:00 21 5 Oeste 10 Sudeste 0 -- -- 81
2019-11-23 18:00:00 21.1 8 Sudeste 22 Este 0 -- -- 79
2019-11-23 17:00:00 23.2 7 Sudoeste 19 Sudoeste 0 -- -- 68
2019-11-23 16:00:00 23.7 10 Sudoeste 19 Sudoeste 0 -- -- 66
2019-11-23 15:00:00 22.8 10 Oeste 19 Sudoeste 0 -- -- 76
2019-11-23 14:00:00 23.3 11 Sudoeste 21 Sur 0 -- -- 71
2019-11-23 13:00:00 23.6 10 Sudoeste 17 Sur 0 -- -- 69
2019-11-23 12:00:00 23.2 8 Sur 15 Sudoeste 0 -- -- 72
2019-11-23 11:00:00 22.3 6 Sudeste 12 Sudeste 0 -- -- 77
2019-11-23 10:00:00 22.1 5 Este 9 Sudeste 0 -- -- 76
2019-11-23 09:00:00 20.1 4 Oeste 10 Noroeste 0 -- -- 81
2019-11-23 08:00:00 18.9 5 Noroeste 9 Noroeste 0 -- -- 84
2019-11-23 07:00:00 18.7 5 Noroeste 10 Noroeste 0 -- -- 84
2019-11-23 06:00:00 18.7 7 Oeste 11 Oeste 0 -- -- 79
2019-11-23 05:00:00 18.9 4 Noroeste 8 Noroeste 0 -- -- 80
2019-11-23 04:00:00 18.9 6 Noroeste 9 Noroeste 0 -- -- 80
2019-11-23 03:00:00 18.9 2 Noroeste 9 Noroeste 0 -- -- 82
2019-11-23 02:00:00 19.3 5 Oeste 10 Oeste 0 -- -- 85
2019-11-23 01:00:00 19.7 4 Oeste 8 Oeste 0 -- -- 86
2019-11-23 00:00:00 20.1 5 Oeste 11 Oeste 0 -- -- 84
2019-11-22 23:00:00 20 7 Oeste 14 Oeste 0 -- -- 85
2019-11-22 22:00:00 20.2 6 Oeste 13 Oeste 0 -- -- 83
2019-11-22 21:00:00 20.8 6 Oeste 10 Oeste 0 -- -- 77
2019-11-22 20:00:00 21 6 Oeste 9 Oeste 0 -- -- 76
2019-11-22 19:00:00 21.3 4 Oeste 9 Sudoeste 0 -- -- 75
2019-11-22 18:00:00 22.3 5 Sudoeste 13 Sudoeste 0 -- -- 68
2019-11-22 17:00:00 23.4 8 Sudoeste 17 Sur 0 -- -- 64
2019-11-22 16:00:00 24.3 9 Sudoeste 19 Sudoeste 0 -- -- 62
2019-11-22 15:00:00 25.1 8 Sudoeste 19 Sudoeste 0 -- -- 61
2019-11-22 14:00:00 23.7 8 Sudeste 15 Sudeste 0 -- -- 65
2019-11-22 13:00:00 23.6 6 Sudeste 14 Este 0 -- -- 65
2019-11-22 12:00:00 22.4 7 Sudeste 16 Sudeste 0 -- -- 70
2019-11-22 11:00:00 21.6 9 Este 18 Este 0 -- -- 78
2019-11-22 10:00:00 21.1 11 Sudeste 18 Sudeste 0 -- -- 80
2019-11-22 09:00:00 20.8 6 Este 13 Este 0 -- -- 75
2019-11-22 08:00:00 18.5 4 Nordeste 8 Norte 0 -- -- 76
2019-11-22 07:00:00 18.3 7 Norte 12 Noroeste 0 -- -- 77
2019-11-22 06:00:00 18.9 7 Oeste 13 Noroeste 0 -- -- 85
2019-11-22 05:00:00 19.5 7 Oeste 17 Oeste 0 -- -- 87
2019-11-22 04:00:00 19.6 9 Oeste 16 Oeste 0 -- -- 89
2019-11-22 03:00:00 19.8 8 Oeste 19 Oeste 0 -- -- 87
2019-11-22 02:00:00 19.7 7 Oeste 16 Noroeste 0 -- -- 87
2019-11-22 01:00:00 20 8 Oeste 18 Noroeste 0 -- -- 85
2019-11-22 00:00:00 20.3 9 Oeste 18 Oeste 0 -- -- 83
2019-11-21 23:00:00 20.1 6 Oeste 13 Noroeste 0 -- -- 79
2019-11-21 22:00:00 20.1 9 Noroeste 15 Oeste 0 -- -- 79
2019-11-21 21:00:00 19.9 7 Oeste 13 Oeste 0 -- -- 77
2019-11-21 20:00:00 20.1 8 Oeste 18 Oeste 0 -- -- 76
2019-11-21 19:00:00 20.3 10 Oeste 18 Oeste 0 -- -- 74
2019-11-21 18:00:00 20.8 12 Oeste 26 Oeste 0 -- -- 69
2019-11-21 17:00:00 21.6 16 Sudoeste 36 Oeste 0 -- -- 69
2019-11-21 16:00:00 22.1 19 Sudoeste 32 Sudoeste 0 -- -- 65
2019-11-21 15:00:00 22.4 19 Oeste 33 Oeste 0 -- -- 66
2019-11-21 14:00:00 22.9 19 Sudoeste 34 Sudoeste 0 -- -- 67
2019-11-21 13:00:00 22.5 19 Sudoeste 35 Sudoeste 0 -- -- 68
2019-11-21 12:00:00 22.4 21 Sudoeste 32 Sudoeste 0 -- -- 69
2019-11-21 11:00:00 22.6 17 Sudoeste 26 Sudoeste 0 -- -- 63
2019-11-21 10:00:00 22 10 Sudoeste 18 Sudoeste 0 -- -- 74
2019-11-21 09:00:00 20.3 8 Oeste 14 Oeste 0 -- -- 81
2019-11-21 08:00:00 18.9 5 Oeste 10 Oeste 0 -- -- 86
2019-11-21 07:00:00 -- -- -- -- -- -- -- -- --
2019-11-21 06:00:00 -- -- -- -- -- -- -- -- --
2019-11-21 05:00:00 -- -- -- -- -- -- -- -- --
2019-11-21 04:00:00 -- -- -- -- -- -- -- -- --
2019-11-21 03:00:00 -- -- -- -- -- -- -- -- --
2019-11-21 02:00:00 -- -- -- -- -- -- -- -- --
2019-11-21 01:00:00 -- -- -- -- -- -- -- -- --
2019-11-21 00:00:00 -- -- -- -- -- -- -- -- --
2019-11-20 23:00:00 -- -- -- -- -- -- -- -- --
2019-11-20 22:00:00 -- -- -- -- -- -- -- -- --
2019-11-20 21:00:00 -- -- -- -- -- -- -- -- --
2019-11-20 20:00:00 20 4 Oeste 18 Sudoeste 0 -- -- 78
2019-11-20 19:00:00 20.1 11 Oeste 26 Oeste 0 -- -- 75
2019-11-20 18:00:00 20.6 18 Oeste 29 Sudoeste 0 -- -- 73
2019-11-20 17:00:00 21.6 15 Oeste 38 Sudoeste 0 -- -- 69
2019-11-20 16:00:00 22.4 14 Oeste 32 Oeste 0 -- -- 66
2019-11-20 15:00:00 22.4 18 Oeste 33 Sudoeste 0 -- -- 65
2019-11-20 14:00:00 22.1 19 Oeste 37 Sudoeste 0 -- -- 67
2019-11-20 13:00:00 22.1 18 Oeste 42 Oeste 0 -- -- 67
2019-11-20 12:00:00 22.2 19 Oeste 30 Sudoeste 0 -- -- 66
2019-11-20 11:00:00 21.9 14 Sudoeste 22 Sudoeste 0 -- -- 65
2019-11-20 10:00:00 21.2 11 Oeste 18 Oeste 0 -- -- 68
2019-11-20 09:00:00 19.2 4 Noroeste 10 Noroeste 0 -- -- 59
2019-11-20 08:00:00 17.5 7 Noroeste 10 Noroeste 0 -- -- 65
2019-11-20 07:00:00 17.2 6 Noroeste 12 Noroeste 0 -- -- 70
2019-11-20 06:00:00 17.4 8 Norte 13 Norte 0 -- -- 72
2019-11-20 05:00:00 17.8 8 Norte 12 Norte 0 -- -- 74
2019-11-20 04:00:00 18 7 Norte 12 Norte 0 -- -- 75
2019-11-20 03:00:00 18.3 6 Norte 12 Norte 0 -- -- 75
2019-11-20 02:00:00 18.6 5 Norte 11 Noroeste 0 -- -- 77
2019-11-20 01:00:00 18.8 5 Noroeste 10 Noroeste 0 -- -- 78
2019-11-20 00:00:00 18.9 4 Noroeste 10 Noroeste 0 -- -- 78
2019-11-19 23:00:00 19.4 5 Noroeste 14 Oeste 0 -- -- 77
2019-11-19 22:00:00 19.6 6 Oeste 14 Oeste 0 -- -- 78
2019-11-19 21:00:00 19.8 7 Oeste 15 Oeste 0 -- -- 77
2019-11-19 20:00:00 20 6 Oeste 15 Oeste 0 -- -- 76
2019-11-19 19:00:00 19.9 6 Oeste 17 Sudoeste 0 -- -- 74
2019-11-19 18:00:00 20.4 10 Sudoeste 28 Sudoeste 0 -- -- 72
2019-11-19 17:00:00 21.6 16 Sudoeste 29 Sur 0 -- -- 68
2019-11-19 16:00:00 22.3 14 Sur 24 Sur 0 -- -- 66
2019-11-19 15:00:00 22.5 12 Sur 21 Sur 0 -- -- 64
2019-11-19 14:00:00 20.9 13 Sudeste 23 Este 0 -- -- 70
2019-11-19 13:00:00 21.4 13 Sudeste 21 Sudeste 0 -- -- 68
2019-11-19 12:00:00 22.7 9 Sur 16 Sur 0 -- -- 60
2019-11-19 11:00:00 22.8 8 Sur 13 Sudoeste 0 -- -- 55
2019-11-19 10:00:00 21.2 6 Sudoeste 13 Oeste 0 -- -- 64
2019-11-19 09:00:00 19 6 Noroeste 10 Noroeste 0 -- -- 60
2019-11-19 08:00:00 17.3 4 Noroeste 12 Noroeste 0 -- -- 63
2019-11-19 07:00:00 16.9 6 Noroeste 12 Norte 0 -- -- 65
2019-11-19 06:00:00 16.9 6 Norte 12 Noroeste 0 -- -- 65
2019-11-19 05:00:00 17.4 9 Noroeste 14 Noroeste 0 -- -- 65
2019-11-19 04:00:00 17.1 4 Noroeste 12 Noroeste 0 -- -- 67
2019-11-19 03:00:00 17.4 5 Norte 11 Noroeste 0 -- -- 68
2019-11-19 02:00:00 17.7 5 Norte 12 Norte 0 -- -- 68
2019-11-19 01:00:00 17.8 5 Norte 10 Noroeste 0 -- -- 69
2019-11-19 00:00:00 17.9 5 Norte 10 Norte 0 -- -- 69
2019-11-18 23:00:00 18.3 5 Norte 9 Norte 0 -- -- 68
2019-11-18 22:00:00 18.8 3 Norte 6 Nordeste 0 -- -- 65
2019-11-18 21:00:00 19.2 3 Este 10 Este 0 -- -- 64
2019-11-18 20:00:00 19.5 4 Este 10 Nordeste 0 -- -- 62
2019-11-18 19:00:00 19.8 6 Nordeste 19 Nordeste 0 -- -- 60
2019-11-18 18:00:00 20.9 8 Nordeste 35 Nordeste 0 -- -- 55
2019-11-18 17:00:00 21 14 Este 33 Nordeste 0 -- -- 59
2019-11-18 16:00:00 21.9 13 Nordeste 36 Este 0 -- -- 57
2019-11-18 15:00:00 21.5 18 Nordeste 36 Este 0 -- -- 61
2019-11-18 14:00:00 22.6 14 Nordeste 41 Este 0 -- -- 53
2019-11-18 13:00:00 23.1 9 Oeste 32 Norte 0 -- -- 52
2019-11-18 12:00:00 22.3 12 Nordeste 29 Este 0 -- -- 54
2019-11-18 11:00:00 21.5 12 Este 31 Este 0 -- -- 59
2019-11-18 10:00:00 19.8 4 Noroeste 7 Oeste 0 -- -- 63
2019-11-18 09:00:00 17.7 3 Norte 9 Norte 0 -- -- 58
2019-11-18 08:00:00 15.9 5 Norte 11 Norte 0 -- -- 63
2019-11-18 07:00:00 15.4 5 Norte 10 Norte 0 -- -- 63
2019-11-18 06:00:00 15.5 5 Norte 8 Norte 0 -- -- 62
2019-11-18 05:00:00 15.7 6 Norte 9 Norte 0 -- -- 62
2019-11-18 04:00:00 15.8 5 Norte 6 Norte 0 -- -- 65
2019-11-18 03:00:00 16.2 5 Norte 8 Norte 0 -- -- 66
2019-11-18 02:00:00 16.7 2 Noroeste 6 Norte 0 -- -- 63
2019-11-18 01:00:00 17.3 3 Norte 14 Norte 0 -- -- 63
2019-11-18 00:00:00 18 5 Nordeste 22 Nordeste 0 -- -- 62
2019-11-17 23:00:00 18.3 10 Nordeste 27 Este 0 -- -- 64
2019-11-17 22:00:00 18.4 10 Este 28 Nordeste 0 -- -- 66
2019-11-17 21:00:00 18.4 15 Nordeste 37 Este 0 -- -- 66
2019-11-17 20:00:00 18.5 14 Nordeste 37 Nordeste 0 -- -- 67
2019-11-17 19:00:00 18.8 14 Nordeste 34 Nordeste 0 -- -- 66
2019-11-17 18:00:00 19.2 15 Nordeste 39 Norte 0 -- -- 64
2019-11-17 17:00:00 20.1 18 Nordeste 40 Este 0 -- -- 58
2019-11-17 16:00:00 20.2 17 Nordeste 40 Nordeste 0 -- -- 58
2019-11-17 15:00:00 19.7 21 Nordeste 54 Nordeste 0 -- -- 63
2019-11-17 14:00:00 20.1 21 Nordeste 44 Este 0 -- -- 62
2019-11-17 13:00:00 21.5 22 Nordeste 60 Nordeste 0 -- -- 45
2019-11-17 12:00:00 20.3 24 Nordeste 47 Este 0 -- -- 55
2019-11-17 11:00:00 19.9 17 Este 47 Nordeste 0 -- -- 58
2019-11-17 10:00:00 19.1 13 Este 43 Nordeste 0 -- -- 65
2019-11-17 09:00:00 18.8 21 Nordeste 42 Nordeste 0 -- -- 59
2019-11-17 08:00:00 17.8 19 Nordeste 36 Este 0 -- -- 67
2019-11-17 07:00:00 18 16 Nordeste 33 Este 0 -- -- 63
2019-11-17 06:00:00 19.1 11 Nordeste 41 Nordeste 0 -- -- 54
2019-11-17 05:00:00 18.4 14 Nordeste 33 Nordeste 0 -- -- 64
2019-11-17 04:00:00 18.9 13 Nordeste 29 Este 0 -- -- 61
2019-11-17 03:00:00 18.5 14 Nordeste 30 Nordeste 0 -- -- 65
2019-11-17 02:00:00 19 15 Nordeste 30 Este 0 -- -- 58
2019-11-17 01:00:00 18.9 17 Nordeste 33 Este 0 -- -- 60
2019-11-17 00:00:00 18.8 12 Nordeste 33 Este 0 -- -- 62
2019-11-16 23:00:00 18.6 14 Nordeste 39 Este 0 -- -- 69
2019-11-16 22:00:00 19.4 14 Nordeste 32 Nordeste 0 -- -- 59
2019-11-16 21:00:00 19.2 18 Nordeste 37 Este 0 -- -- 62
2019-11-16 20:00:00 19.5 16 Nordeste 32 Nordeste 0 -- -- 60
2019-11-16 19:00:00 20.6 10 Nordeste 29 Sudeste 0 -- -- 51
2019-11-16 18:00:00 21 8 Sur 23 Sudoeste 0 -- -- 54
2019-11-16 17:00:00 22.1 11 Sudoeste 22 Oeste 0 -- -- 52
2019-11-16 16:00:00 22.9 13 Sudoeste 26 Sudoeste 0 -- -- 50
2019-11-16 15:00:00 22.9 15 Sudoeste 28 Sudoeste 0 -- -- 49
2019-11-16 14:00:00 23.1 14 Sudoeste 26 Sudoeste 0 -- -- 50
2019-11-16 13:00:00 22.7 14 Sudoeste 26 Sudoeste 0 -- -- 51
2019-11-16 12:00:00 22.1 14 Sudoeste 24 Oeste 0 -- -- 53
2019-11-16 11:00:00 21.9 10 Sur 20 Sudeste 0 -- -- 53
2019-11-16 10:00:00 20.7 5 Oeste 9 Oeste 0 -- -- 57
2019-11-16 09:00:00 19.1 4 Oeste 9 Norte 0 -- -- 61
2019-11-16 08:00:00 16.8 4 Nordeste 15 Norte 0 -- -- 67
2019-11-16 07:00:00 16.6 8 Norte 14 Norte 0 -- -- 66
2019-11-16 06:00:00 16.7 3 Norte 9 Norte 0 -- -- 66
2019-11-16 05:00:00 17.3 4 Noroeste 9 Noroeste 0 -- -- 63
2019-11-16 04:00:00 17.6 8 Noroeste 14 Norte 0 -- -- 62
2019-11-16 03:00:00 18.1 6 Nordeste 13 Nordeste 0 -- -- 62
2019-11-16 02:00:00 18 4 Norte 26 Nordeste 0 -- -- 60
2019-11-16 01:00:00 18.6 10 Este 28 Este 0 -- -- 62
2019-11-16 00:00:00 19 10 Nordeste 28 Nordeste 0 -- -- 57
2019-11-15 23:00:00 19.2 12 Nordeste 30 Nordeste 0 -- -- 59
2019-11-15 22:00:00 19.3 14 Nordeste 29 Nordeste 0 -- -- 62
2019-11-15 21:00:00 19.3 14 Nordeste 37 Nordeste 0 -- -- 60
2019-11-15 20:00:00 19.7 17 Nordeste 35 Nordeste 0 -- -- 50
2019-11-15 19:00:00 19.5 18 Nordeste 46 Nordeste 0 -- -- 56
2019-11-15 18:00:00 19.5 19 Nordeste 49 Nordeste 0 -- -- 61
2019-11-15 17:00:00 20.3 24 Nordeste 50 Nordeste 0 -- -- 52
2019-11-15 16:00:00 20.7 19 Nordeste 41 Este 0 -- -- 60
2019-11-15 15:00:00 21.2 17 Nordeste 39 Nordeste 0 -- -- 53
2019-11-15 14:00:00 20.8 21 Nordeste 37 Este 0 -- -- 60
2019-11-15 13:00:00 20.6 18 Nordeste 42 Nordeste 0 -- -- 67
2019-11-15 12:00:00 20.1 17 Nordeste 38 Nordeste 0 -- -- 67
2019-11-15 11:00:00 21.7 10 Este 24 Este 0 -- -- 62
2019-11-15 10:00:00 20.8 5 Nordeste 19 Este 0 -- -- 63
2019-11-15 09:00:00 19.3 4 Norte 15 Nordeste 0 -- -- 69
2019-11-15 08:00:00 18.6 5 Norte 14 Noroeste 0 -- -- 71
2019-11-15 07:00:00 18.7 6 Nordeste 10 Este 0 -- -- 72
2019-11-15 06:00:00 18.9 7 Norte 14 Noroeste 0 -- -- 71
2019-11-15 05:00:00 19.5 4 Norte 20 Nordeste 0 -- -- 66
2019-11-15 04:00:00 20 9 Nordeste 26 Nordeste 0 -- -- 57
2019-11-15 03:00:00 19.8 0 Calma 23 Este 0 -- -- 64
2019-11-15 02:00:00 20.2 10 Nordeste 31 Este 0 -- -- 55
2019-11-15 01:00:00 19.7 17 Nordeste 36 Nordeste 0 -- -- 63
2019-11-15 00:00:00 20.5 10 Nordeste 33 Nordeste 0 -- -- 61
2019-11-14 23:00:00 20.4 14 Nordeste 36 Nordeste 0 -- -- 63
2019-11-14 22:00:00 20.3 14 Nordeste 41 Nordeste 0 -- -- 69
2019-11-14 21:00:00 20.8 11 Nordeste 30 Este 0 -- -- 61
2019-11-14 20:00:00 20.8 11 Este 24 Nordeste 0 -- -- 66
2019-11-14 19:00:00 21.2 11 Nordeste 33 Nordeste 0 -- -- 60
2019-11-14 18:00:00 21.6 15 Nordeste 33 Este 0 -- -- 61
2019-11-14 17:00:00 22.3 6 Este 16 Nordeste 0 -- -- 58
2019-11-14 16:00:00 22.5 8 Oeste 33 Nordeste 0 -- -- 60
2019-11-14 15:00:00 22.9 17 Nordeste 51 Nordeste 0 -- -- 58
2019-11-14 14:00:00 23.2 12 Nordeste 33 Nordeste 0 -- -- 57
2019-11-14 13:00:00 23.4 9 Oeste 25 Oeste 0 -- -- 54
2019-11-14 12:00:00 23.5 11 Sudoeste 29 Sudoeste 0 -- -- 55
2019-11-14 11:00:00 23.1 8 Sudoeste 15 Sudoeste 0 -- -- 56
2019-11-14 10:00:00 21.6 8 Oeste 18 Oeste 0 -- -- 63
2019-11-14 09:00:00 20.1 5 Este 16 Norte 0 -- -- 65
2019-11-14 08:00:00 18.3 5 Norte 12 Noroeste 0 -- -- 66
2019-11-14 07:00:00 18.6 5 Norte 8 Norte 0 -- -- 69
2019-11-14 06:00:00 18.9 4 Este 15 Noroeste 0 -- -- 71
2019-11-14 05:00:00 19 9 Norte 19 Este 0 -- -- 69
2019-11-14 04:00:00 19.2 4 Nordeste 11 Norte 0 -- -- 71
2019-11-14 03:00:00 19.2 6 Norte 11 Norte 0 -- -- 70
2019-11-14 02:00:00 19.6 3 Nordeste 8 Este 0 -- -- 64
2019-11-14 01:00:00 19.8 3 Sudeste 8 Nordeste 0 -- -- 59
2019-11-14 00:00:00 20.1 4 Nordeste 16 Nordeste 0 -- -- 58
2019-11-13 23:00:00 20.5 7 Nordeste 13 Nordeste 0 -- -- 59
2019-11-13 22:00:00 20.6 3 Este 14 Nordeste 0 -- -- 58
2019-11-13 21:00:00 20.8 4 Nordeste 12 Nordeste 0 -- -- 58
2019-11-13 20:00:00 21.2 5 Norte 9 Sudoeste 0 -- -- 66
2019-11-13 19:00:00 21.3 4 Sudoeste 15 Oeste 0 -- -- 66
2019-11-13 18:00:00 22.3 7 Oeste 18 Oeste 0 -- -- 61
2019-11-13 17:00:00 23 11 Oeste 27 Oeste 0 -- -- 58
2019-11-13 16:00:00 24 13 Sudoeste 24 Sudoeste 0 -- -- 58
2019-11-13 15:00:00 25.2 17 Sudoeste 31 Sudoeste 0 -- -- 51
2019-11-13 14:00:00 25.1 9 Sudoeste 25 Norte 0 -- -- 51
2019-11-13 13:00:00 24.5 14 Oeste 25 Sudoeste 0 -- -- 52
2019-11-13 12:00:00 24.9 14 Sudoeste 28 Sudoeste 0 -- -- 53
2019-11-13 11:00:00 24.3 6 Sudoeste 22 Oeste 0 -- -- 55
2019-11-13 10:00:00 22.8 10 Oeste 16 Oeste 0 -- -- 60
2019-11-13 09:00:00 21 4 Norte 14 Noroeste 0 -- -- 59
2019-11-13 08:00:00 19.3 5 Norte 12 Norte 0 -- -- 62
2019-11-13 07:00:00 18.3 3 Noroeste 7 Nordeste 0 -- -- 65
2019-11-13 06:00:00 19.1 6 Noroeste 12 Norte 0 -- -- 61
2019-11-13 05:00:00 19.8 6 Norte 13 Noroeste 0 -- -- 61
2019-11-13 04:00:00 19.7 4 Oeste 12 Norte 0 -- -- 64
2019-11-13 03:00:00 19.8 4 Norte 14 Oeste 0 -- -- 68
2019-11-13 02:00:00 19.9 7 Noroeste 13 Sudoeste 0 -- -- 76
2019-11-13 01:00:00 19.8 8 Sudoeste 21 Oeste 0 -- -- 75
2019-11-13 00:00:00 20.3 12 Oeste 23 Oeste 0 -- -- 75
2019-11-12 23:00:00 20.5 5 Oeste 12 Oeste 0 -- -- 82
2019-11-12 22:00:00 20.8 6 Oeste 16 Oeste 0 -- -- 80
2019-11-12 21:00:00 21.2 9 Noroeste 17 Oeste 0 -- -- 78
2019-11-12 20:00:00 21.5 5 Oeste 14 Oeste 0 -- -- 76
2019-11-12 19:00:00 22 6 Oeste 18 Oeste 0 -- -- 73
2019-11-12 18:00:00 22.9 9 Sudoeste 25 Oeste 0 -- -- 68
2019-11-12 17:00:00 24.4 10 Sudoeste 23 Sudoeste 0 -- -- 58
2019-11-12 16:00:00 24.3 13 Sudoeste 23 Oeste 0 -- -- 62
2019-11-12 15:00:00 25.1 13 Sudoeste 23 Sudoeste 0 -- -- 57
2019-11-12 14:00:00 24.8 13 Sudoeste 27 Oeste 0 -- -- 58
2019-11-12 13:00:00 24.5 17 Oeste 27 Oeste 0 -- -- 57
2019-11-12 12:00:00 24.5 10 Sudoeste 21 Sudoeste 0 -- -- 55
2019-11-12 11:00:00 22.9 11 Oeste 21 Oeste 0 -- -- 59
2019-11-12 10:00:00 22.2 9 Oeste 13 Oeste 0 -- -- 64
2019-11-12 09:00:00 21.1 3 Sudeste 14 Norte 0 -- -- 69
2019-11-12 08:00:00 18.8 8 Norte 17 Noroeste 0 -- -- 76
2019-11-12 07:00:00 18.8 7 Norte 14 Norte 0 -- -- 76
2019-11-12 06:00:00 19.2 6 Norte 12 Noroeste 0 -- -- 76
2019-11-12 05:00:00 19.1 7 Norte 13 Norte 0 -- -- 75
2019-11-12 04:00:00 19.4 3 Norte 8 Nordeste 0 -- -- 74
2019-11-12 03:00:00 20 5 Norte 17 Norte 0 -- -- 73
2019-11-12 02:00:00 20.2 6 Norte 13 Norte 0 -- -- 72
2019-11-12 01:00:00 20.4 5 Norte 13 Noroeste 0 -- -- 70
2019-11-12 00:00:00 20.8 6 Norte 15 Norte 0 -- -- 68